Weather History for KAJZ - October, 2012

Change the Weather History Date:

Wednesday, October 10, 2012

  Actual Average (KMTJ) Record (KMTJ)
Temperature  
Mean Temperature 60 °F 52 °F  
Max Temperature 80 °F 67 °F - ()
Min Temperature 39 °F 37 °F - ()
Degree Days  
Heating Degree Days 6 13  
Month to date heating degree days 108  
Since 1 July heating degree days 235  
Cooling Degree Days 0 0  
Month to date cooling degree days 0  
Year to date cooling degree days 643  
Growing Degree Days 10 (Base 50)    
Moisture  
Dew Point 25 °F    
Average Humidity 29    
Maximum Humidity 53    
Minimum Humidity 13    
Precipitation  
Precipitation 0.00 in 0.05 in - ()
Month to date precipitation 0.52  
Year to date precipitation 9.17  
Sea Level Pressure  
Sea Level Pressure 30.10 in    
Wind  
Wind Speed 4 mph ()    
Max Wind Speed 9 mph    
Max Gust Speed 16 mph    
Visibility 10.0 miles    
Events      
T = Trace of Precipitation, MM = Missing Value Source: Averaged Metar Reports

Daily Weather History Graph

Daily Weather History Graph

Search for Another Location

Airport or City:

Trip Planner

Search our weather history database for the weather conditions in past years. The results will help you decide how hot, cold, wet, or windy it might be!

Date:

Astronomy

Oct. 10, 2012 Rise Set
Actual Time 7:17 AM MDT 6:40 PM MDT
Civil Twilight 6:50 AM MDT 7:07 PM MDT
Nautical Twilight 6:19 AM MDT 7:37 PM MDT
Astronomical Twilight 5:48 AM MDT 8:08 PM MDT
Moon 1:59 AM MDT (10/10) 3:42 PM MDT (10/10)
Length of Visible Light 12h 16m
Length of Day
11h 23m
Waning Crescent, 26% of the Moon is Illuminated
Oct 10
Waning Crescent
Oct 15
New
Oct 21
First Quarter
Oct 29
Full
Nov 6
Last Quarter

Hourly Weather History & Observations

Time (MDT) Temp. Windchill Dew Point Humidity Pressure Visibility Wind Dir Wind Speed Gust Speed Precip Events Conditions
12:15 AM 46.0 °F 44.8 °F 23.2 °F 41% 30.13 in 10.0 mi NE 3.5 mph - N/A   Unknown
12:35 AM 48.7 °F - 19.4 °F 31% 30.13 in 10.0 mi East 3.5 mph - N/A   Unknown
12:55 AM 46.4 °F 43.5 °F 19.0 °F 34% 30.13 in 10.0 mi East 5.8 mph - N/A   Unknown
1:15 AM 45.0 °F 42.6 °F 24.3 °F 44% 30.13 in 10.0 mi NE 4.6 mph - N/A   Unknown
1:35 AM 45.7 °F 44.4 °F 22.6 °F 40% 30.14 in 10.0 mi NE 3.5 mph - N/A   Unknown
1:55 AM 47.5 °F - 23.7 °F 39% 30.14 in 10.0 mi Calm Calm - N/A   Unknown
2:15 AM 46.0 °F 43.1 °F 23.5 °F 41% 30.15 in 10.0 mi NE 5.8 mph - N/A   Unknown
2:35 AM 47.7 °F - 19.4 °F 33% 30.14 in 10.0 mi ENE 8.1 mph - N/A   Unknown
2:55 AM 44.8 °F 43.3 °F 20.5 °F 38% 30.15 in 10.0 mi ESE 3.5 mph - N/A   Unknown
3:15 AM 44.6 °F 40.7 °F 19.2 °F 36% 30.14 in 10.0 mi NE 6.9 mph - N/A   Unknown
3:35 AM 47.7 °F - 20.1 °F 34% 30.14 in 10.0 mi ENE 8.1 mph - N/A   Unknown
3:55 AM 43.9 °F - 21.2 °F 41% 30.14 in 10.0 mi Calm Calm - N/A   Unknown
4:15 AM 42.8 °F 39.3 °F 23.7 °F 47% 30.14 in 10.0 mi NE 5.8 mph - N/A   Unknown
4:35 AM 46.6 °F - 19.9 °F 35% 30.14 in 10.0 mi ENE 8.1 mph - N/A   Unknown
4:55 AM 47.1 °F - 20.3 °F 35% 30.15 in 10.0 mi East 8.1 mph - N/A   Unknown
5:15 AM 44.8 °F 42.4 °F 21.0 °F 39% 30.15 in 10.0 mi ESE 4.6 mph - N/A   Unknown
5:35 AM 44.8 °F 41.0 °F 21.2 °F 39% 30.15 in 10.0 mi ENE 6.9 mph - N/A   Unknown
5:55 AM 45.5 °F 41.8 °F 19.8 °F 36% 30.16 in 10.0 mi ENE 6.9 mph - N/A   Unknown
6:15 AM 46.2 °F 43.3 °F 20.1 °F 35% 30.16 in 10.0 mi ENE 5.8 mph - N/A   Unknown
6:35 AM 43.2 °F - 21.2 °F 42% 30.17 in 10.0 mi Calm Calm - N/A   Unknown
6:55 AM 42.4 °F - 21.6 °F 44% 30.17 in 10.0 mi Calm Calm - N/A   Unknown
7:15 AM 39.6 °F 36.3 °F 23.5 °F 53% 30.17 in 10.0 mi NNE 4.6 mph - N/A   Unknown
7:35 AM 40.1 °F - 23.2 °F 51% 30.17 in 10.0 mi Calm Calm - N/A   Unknown
7:55 AM 41.9 °F - 22.5 °F 46% 30.18 in 10.0 mi Calm Calm - N/A   Unknown
8:15 AM 45.1 °F - 22.5 °F 41% 30.18 in 10.0 mi Calm Calm - N/A   Unknown
8:35 AM 47.7 °F - 23.2 °F 38% 30.19 in 10.0 mi NE 4.6 mph - N/A   Unknown
8:55 AM 49.6 °F - 21.7 °F 33% 30.19 in 10.0 mi ENE 3.5 mph - N/A   Unknown
9:15 AM 51.4 °F - 22.1 °F 32% 30.19 in 10.0 mi East 3.5 mph - N/A   Unknown
9:35 AM 52.9 °F - 22.5 °F 31% 30.19 in 10.0 mi ENE 5.8 mph - N/A   Unknown
9:55 AM 55.4 °F - 22.8 °F 28% 30.19 in 10.0 mi ENE 4.6 mph - N/A   Unknown
10:15 AM 56.7 °F - 22.8 °F 27% 30.19 in 10.0 mi Calm Calm - N/A   Unknown
10:35 AM 58.6 °F - 22.6 °F 25% 30.17 in 10.0 mi ENE 3.5 mph - N/A   Unknown
10:55 AM 61.0 °F - 22.8 °F 23% 30.17 in 10.0 mi ESE 3.5 mph - N/A   Unknown
11:15 AM 63.5 °F - 23.5 °F 22% 30.16 in 10.0 mi East 3.5 mph - N/A   Unknown
11:35 AM 65.5 °F - 23.4 °F 20% 30.15 in 10.0 mi SE 3.5 mph - N/A   Unknown
11:55 AM 67.3 °F - 23.5 °F 19% 30.15 in 10.0 mi Calm Calm - N/A   Unknown
12:15 PM 70.0 °F - 23.0 °F 17% 30.13 in 10.0 mi East 3.5 mph - N/A   Unknown
12:35 PM 71.8 °F - 23.4 °F 16% 30.12 in 10.0 mi East 3.5 mph - N/A   Unknown
12:55 PM 73.2 °F - 24.3 °F 16% 30.10 in 10.0 mi SE 5.8 mph - N/A   Unknown
1:15 PM 74.8 °F - 24.6 °F 15% 30.09 in 10.0 mi South 3.5 mph - N/A   Unknown
1:35 PM 75.2 °F - 26.4 °F 16% 30.07 in 10.0 mi Calm Calm - N/A   Unknown
1:55 PM 77.0 °F - 26.2 °F 15% 30.06 in 10.0 mi Calm Calm - N/A   Unknown
2:15 PM 79.0 °F - 26.6 °F 15% 30.04 in 10.0 mi East 4.6 mph - N/A   Unknown
2:35 PM 79.2 °F - 27.0 °F 15% 30.04 in 10.0 mi Calm Calm - N/A   Unknown
2:55 PM 80.6 °F - 26.4 °F 14% 30.02 in 10.0 mi South 4.6 mph - N/A   Unknown
3:15 PM 79.9 °F - 26.6 °F 14% 30.02 in 10.0 mi SW 3.5 mph - N/A   Unknown
3:35 PM 80.8 °F - 26.6 °F 14% 30.02 in 10.0 mi SSW 3.5 mph - N/A   Unknown
3:55 PM 79.9 °F - 25.7 °F 14% 30.01 in 10.0 mi WNW 5.8 mph - N/A   Unknown
4:15 PM 80.1 °F - 25.3 °F 13% 30.00 in 10.0 mi West 4.6 mph - N/A   Unknown
4:35 PM 79.7 °F - 25.3 °F 14% 30.00 in 10.0 mi West 4.6 mph 16.1 mph N/A   Unknown
4:55 PM 78.8 °F - 24.8 °F 14% 30.00 in 10.0 mi West 6.9 mph - N/A   Unknown
5:35 PM 77.9 °F - 25.3 °F 14% 30.00 in 10.0 mi SW 6.9 mph - N/A   Unknown
5:55 PM 76.6 °F - 26.6 °F 16% 30.00 in 10.0 mi WSW 6.9 mph - N/A   Unknown
6:15 PM 76.1 °F - 26.2 °F 16% 30.00 in 10.0 mi West 5.8 mph - N/A   Unknown
6:35 PM 75.4 °F - 26.1 °F 16% 30.01 in 10.0 mi West 5.8 mph - N/A   Unknown
6:55 PM 72.7 °F - 27.9 °F 19% 30.01 in 10.0 mi WSW 4.6 mph - N/A   Unknown
7:15 PM 71.4 °F - 26.6 °F 19% 30.01 in 10.0 mi West 4.6 mph - N/A   Unknown
7:35 PM 68.2 °F - 29.1 °F 23% 30.02 in 10.0 mi Calm Calm - N/A   Unknown
7:55 PM 68.0 °F - 28.8 °F 23% 30.02 in 10.0 mi Calm Calm - N/A   Unknown
8:15 PM 64.9 °F - 28.2 °F 25% 30.03 in 10.0 mi SSW 5.8 mph - N/A   Unknown
8:35 PM 64.6 °F - 28.4 °F 26% 30.03 in 10.0 mi SW 5.8 mph - N/A   Unknown
8:55 PM 63.3 °F - 28.4 °F 27% 30.04 in 10.0 mi Calm Calm - N/A   Unknown
9:15 PM 59.5 °F - 32.4 °F 36% 30.05 in 10.0 mi Calm Calm - N/A   Unknown
9:35 PM 58.1 °F - 31.6 °F 37% 30.06 in 10.0 mi NNE 6.9 mph - N/A   Unknown
9:55 PM 57.9 °F - 31.5 °F 37% 30.07 in 10.0 mi NNE 5.8 mph - N/A   Unknown
10:15 PM 57.0 °F - 32.0 °F 39% 30.07 in 10.0 mi NE 5.8 mph - N/A   Unknown
10:35 PM 56.8 °F - 31.5 °F 38% 30.07 in 10.0 mi NE 5.8 mph - N/A   Unknown
10:55 PM 57.4 °F - 30.6 °F 36% 30.07 in 10.0 mi NNE 6.9 mph - N/A   Unknown
11:15 PM 57.7 °F - 30.2 °F 35% 30.07 in 10.0 mi North 9.2 mph - N/A   Unknown
11:35 PM 57.0 °F - 28.6 °F 34% 30.08 in 10.0 mi ENE 3.5 mph - N/A   Unknown
11:55 PM 54.5 °F - 26.8 °F 34% 30.08 in 10.0 mi ENE 5.8 mph - N/A   Unknown